Date String (YYYY-MM-DD hh:mm:ss) UTC,Instrument flags,absolute air pressure of the measurement (hPa),sample flow rate (lpm),inlet stack bypass flow (lpm),air temperature of the measurement (°C),ambient temperature measured by the external sensor (°C),aerosol sample conditioner tube jacket temperature (°C),OPC LED temperature (°C),internal box temperature (°C),relative humidity of the measurement (%),span deviation,mass concentration of particles derived from Lorenz-Mie calculation of OPC scattering (μg/m³),mass concentration of particles derived from Lorenz-Mie calculation of OPC scattering (μg/m³),mass concentration of particles derived from Lorenz-Mie calculation of OPC scattering (μg/m³)
DateTimeUTC,F1_M11,P_M11,Q1_M11,Q2_M11,T1_M11,T2_M11,T3_M11,T4_M11,T5_M11,U1_M11,ZSPAN_M11,X0_M11,X2_M11,X1_M11
2024-03-12 21:00:00,SystemResetWarning,0822.1,5.00,000.00,022.3,021.8,000.0,030.6,024.1,12.2,0000.0,0011.96,0003.22,0001.53
2024-03-12 21:01:00,SystemResetWarning,0822.1,5.00,000.00,022.3,021.8,000.0,030.6,024.1,12.1,0000.0,0012.69,0003.26,0001.52
2024-03-12 21:02:00,SystemResetWarning,0822.2,5.00,000.00,022.3,021.8,000.0,030.6,024.1,12.0,0000.0,0012.96,0003.28,0001.51
2024-03-12 21:03:00,SystemResetWarning,0822.1,4.99,000.00,022.3,021.8,000.0,030.6,024.1,12.1,0000.0,0012.81,0003.27,0001.52
2024-03-12 21:04:00,SystemResetWarning,0822.1,5.00,000.00,022.3,021.8,000.0,030.6,024.2,12.1,0000.0,0012.71,0003.25,0001.53
2024-03-12 21:05:00,SystemResetWarning,0822.1,5.00,000.00,022.4,021.8,000.0,030.6,024.2,12.2,0000.0,0013.47,0003.26,0001.53
2024-03-12 21:06:00,SystemResetWarning,0822.1,5.00,000.00,022.4,021.8,000.0,030.6,024.2,12.1,0000.0,0013.26,0003.24,0001.53
2024-03-12 21:07:00,SystemResetWarning,0822.1,5.00,000.00,022.4,021.9,000.0,030.7,024.2,12.1,0000.0,0011.58,0003.26,0001.54
2024-03-12 21:08:00,SystemResetWarning,0822.1,5.00,000.00,022.4,021.9,000.0,030.7,024.2,12.0,0000.0,0010.26,0003.25,0001.55
2024-03-12 21:09:00,SystemResetWarning,0822.1,5.00,000.00,022.4,021.9,000.0,030.7,024.2,12.1,0000.0,0010.15,0003.24,0001.55
2024-03-12 21:10:00,SystemResetWarning,0822.2,5.00,000.00,022.4,021.9,000.0,030.7,024.2,12.1,0000.0,0010.19,0003.26,0001.55
2024-03-12 21:11:00,SystemResetWarning,0822.1,5.01,000.00,022.4,021.9,000.0,030.7,024.2,12.4,0000.0,0010.39,0003.28,0001.55
2024-03-12 21:12:00,SystemResetWarning,0822.1,5.00,000.00,022.4,021.9,000.0,030.7,024.3,12.2,0000.0,0010.76,0003.25,0001.57
2024-03-12 21:13:00,SystemResetWarning,0822.1,5.00,000.00,022.5,021.9,000.0,030.7,024.3,12.3,0000.0,0011.14,0003.23,0001.57
2024-03-12 21:14:00,SystemResetWarning,0822.1,5.00,000.00,022.5,021.9,000.0,030.8,024.3,12.3,0000.0,0011.99,0003.25,0001.58
2024-03-12 21:15:00,SystemResetWarning,0822.0,5.00,000.00,022.5,021.9,000.0,030.8,024.3,12.1,0000.0,0012.35,0003.21,0001.57
2024-03-12 21:16:00,SystemResetWarning,0822.0,5.00,000.00,022.5,021.9,000.0,030.8,024.3,12.0,0000.0,0012.53,0003.20,0001.58
2024-03-12 21:17:00,SystemResetWarning,0822.0,5.00,000.00,022.5,021.9,000.0,030.8,024.3,12.1,0000.0,0012.55,0003.18,0001.58
2024-03-12 21:18:00,SystemResetWarning,0822.0,5.00,000.00,022.5,021.9,000.0,030.8,024.3,12.1,0000.0,0012.35,0003.15,0001.58
2024-03-12 21:19:00,SystemResetWarning,0822.0,5.00,000.00,022.5,021.9,000.0,030.8,024.3,12.0,0000.0,0012.46,0003.13,0001.57
2024-03-12 21:20:00,SystemResetWarning,0822.0,5.00,000.00,022.5,022.0,000.0,030.8,024.3,12.0,0000.0,0013.70,0003.12,0001.56
2024-03-12 21:21:00,SystemResetWarning,0821.9,5.00,000.00,022.5,022.0,000.0,030.8,024.3,12.0,0000.0,0015.10,0003.11,0001.57
2024-03-12 21:22:00,SystemResetWarning,0821.9,5.00,000.00,022.6,022.0,000.0,030.9,024.4,12.1,0000.0,0015.37,0003.09,0001.58
2024-03-12 21:23:00,SystemResetWarning,0821.9,5.00,000.00,022.6,022.0,000.0,030.9,024.4,12.2,0000.0,0014.99,0003.13,0001.58
2024-03-12 21:24:00,SystemResetWarning,0821.9,5.00,000.00,022.6,022.0,000.0,030.9,024.4,12.0,0000.0,0014.09,0003.15,0001.61
2024-03-12 21:25:00,SystemResetWarning,0821.9,5.00,000.00,022.6,022.0,000.0,030.9,024.4,12.1,0000.0,0013.61,0003.17,0001.60
2024-03-12 21:26:00,SystemResetWarning,0822.0,5.01,000.00,022.6,022.0,000.0,030.9,024.4,12.0,0000.0,0013.71,0003.22,0001.60
2024-03-12 21:27:00,SystemResetWarning,0822.0,5.00,000.00,022.6,022.0,000.0,030.9,024.4,12.2,0000.0,0012.98,0003.23,0001.60
2024-03-12 21:28:00,SystemResetWarning,0821.9,4.99,000.00,022.6,022.0,000.0,030.9,024.4,12.1,0000.0,0012.90,0003.28,0001.61
2024-03-12 21:29:00,SystemResetWarning,0821.9,5.00,000.00,022.6,022.0,000.0,030.9,024.4,12.0,0000.0,0012.92,0003.32,0001.61
2024-03-12 21:30:00,SystemResetWarning,0821.9,4.99,000.00,022.6,022.0,000.0,030.9,024.4,12.0,0000.0,0012.67,0003.36,0001.62
2024-03-12 21:31:00,SystemResetWarning,0821.9,5.00,000.00,022.6,022.0,000.0,031.0,024.4,11.9,0000.0,0011.39,0003.37,0001.63
2024-03-12 21:32:00,SystemResetWarning,0821.9,5.00,000.00,022.6,022.0,000.0,031.0,024.4,12.0,0000.0,0009.86,0003.34,0001.63
2024-03-12 21:33:00,SystemResetWarning,0822.0,5.00,000.00,022.6,022.0,000.0,031.0,024.4,11.8,0000.0,0009.33,0003.37,0001.63
2024-03-12 21:34:00,SystemResetWarning,0821.9,5.00,000.00,022.6,022.0,000.0,031.0,024.4,11.7,0000.0,0008.66,0003.33,0001.63
2024-03-12 21:35:00,SystemResetWarning,0822.0,5.01,000.00,022.7,022.0,000.0,031.0,024.4,11.8,0000.0,0008.70,0003.31,0001.62
2024-03-12 21:36:00,SystemResetWarning,0822.0,5.00,000.00,022.7,022.0,000.0,031.0,024.4,12.0,0000.0,0008.57,0003.30,0001.63
2024-03-12 21:37:00,SystemResetWarning,0822.0,5.00,000.00,022.7,022.0,000.0,031.0,024.4,12.2,0000.0,0008.87,0003.31,0001.63
2024-03-12 21:38:00,SystemResetWarning,0822.0,5.00,000.00,022.7,022.0,000.0,031.0,024.5,12.1,0000.0,0008.73,0003.30,0001.63
2024-03-12 21:39:00,SystemResetWarning,0822.0,5.00,000.00,022.7,022.0,000.0,031.0,024.5,12.0,0000.0,0008.69,0003.27,0001.63
2024-03-12 21:40:00,SystemResetWarning,0822.0,5.00,000.00,022.7,022.0,000.0,031.0,024.5,12.1,0000.0,0009.27,0003.27,0001.64
2024-03-12 21:41:00,SystemResetWarning,0822.0,5.00,000.00,022.7,022.0,000.0,031.1,024.5,12.3,0000.0,0009.23,0003.23,0001.63
2024-03-12 21:42:00,SystemResetWarning,0821.9,5.01,000.00,022.7,022.0,000.0,031.1,024.5,12.1,0000.0,0009.48,0003.23,0001.61
2024-03-12 21:43:00,SystemResetWarning,0822.0,5.00,000.00,022.7,022.1,000.0,031.1,024.5,12.1,0000.0,0010.37,0003.27,0001.62
2024-03-12 21:44:00,SystemResetWarning,0822.0,4.99,000.00,022.7,022.0,000.0,031.1,024.5,12.2,0000.0,0011.97,0003.27,0001.61
2024-03-12 21:45:00,SystemResetWarning,0822.0,5.00,000.00,022.7,022.0,000.0,031.1,024.5,12.1,0000.0,0013.51,0003.28,0001.62
2024-03-12 21:46:00,SystemResetWarning,0822.0,4.99,000.00,022.7,022.1,000.0,031.1,024.5,11.9,0000.0,0014.45,0003.29,0001.62
2024-03-12 21:47:00,SystemResetWarning,0822.0,5.00,000.00,022.7,022.1,000.0,031.1,024.5,11.9,0000.0,0014.78,0003.27,0001.60
2024-03-12 21:48:00,SystemResetWarning,0822.0,5.00,000.00,022.7,022.1,000.0,031.1,024.5,12.0,0000.0,0014.38,0003.23,0001.59
2024-03-12 21:49:00,SystemResetWarning,0822.0,5.00,000.00,022.7,022.1,000.0,031.1,024.5,12.1,0000.0,0015.30,0003.22,0001.57
2024-03-12 21:50:00,SystemResetWarning,0822.0,5.01,000.00,022.7,022.1,000.0,031.1,024.5,11.8,0000.0,0015.53,0003.23,0001.56
2024-03-12 21:51:00,SystemResetWarning,0822.0,5.01,000.00,022.7,022.1,000.0,031.1,024.5,11.7,0000.0,0015.13,0003.23,0001.56
2024-03-12 21:52:00,SystemResetWarning,0822.0,5.00,000.00,022.7,022.1,000.0,031.1,024.5,11.9,0000.0,0015.18,0003.23,0001.57
2024-03-12 21:53:00,SystemResetWarning,0822.0,5.01,000.00,022.7,022.1,000.0,031.1,024.6,12.0,0000.0,0015.54,0003.23,0001.59
2024-03-12 21:54:00,SystemResetWarning,0821.9,5.00,000.00,022.8,022.1,000.0,031.1,024.6,12.0,0000.0,0014.79,0003.22,0001.59
2024-03-12 21:55:00,SystemResetWarning,0822.0,5.00,000.00,022.8,022.1,000.0,031.1,024.6,12.0,0000.0,0013.52,0003.24,0001.60
2024-03-12 21:56:00,SystemResetWarning,0822.0,5.00,000.00,022.8,022.1,000.0,031.2,024.6,12.1,0000.0,0012.28,0003.27,0001.60
2024-03-12 21:57:00,SystemResetWarning,0822.0,4.99,000.00,022.8,022.2,000.0,031.2,024.6,12.1,0000.0,0012.19,0003.30,0001.63
2024-03-12 21:58:00,SystemResetWarning,0821.9,5.00,000.00,022.8,022.2,000.0,031.2,024.6,12.0,0000.0,0011.23,0003.32,0001.66
2024-03-12 21:59:00,SystemResetWarning,0821.9,4.99,000.00,022.8,022.2,000.0,031.2,024.6,11.9,0000.0,0011.14,0003.36,0001.67
